Probability
1 1 1 0 0 0 0 0 0 0 0 0 0 0 0 0 0 0 0 0 0 0 0 0 0 0 0 0 0 0 0 0 0 0 0 0 0 0
2 1 0 0 0 0 0 0 0 0 0 0 0 0 0 0 0 0 0 0 0 0 0 0 0 0 0 0 0 0 0 0 0 0 0 0 0 0
2 1 0 0 0 0 0 0 0 0 0 0 0 0 0 0 0 0 0 0 0 0 0 0 0 0 0 0 0 0 0 0 0 0 0 0 0 0
2 1 0 0 0 0 0 0 0 0 0 0 0 0 0 0 1 1 1 0 0 0 0 0 0 0 0 0 0 0 0 0 0 0 0 0 0 0
2 1 0 0 0 0 0 0 0 0 0 0 0 0 0 0 1 1 1 0 0 0 0 0 0 0 0 0 0 0 0 0 0 0 0 0 0 0
3 2 0 0 0 0 0 0 0 0 0 0 0 0 0 0 0 0 0 0 0 0 0 0 0 0 0 0 0 0 0 0 0 0 0 0 0 0
2 1 0 0 0 0 0 0 0 0 0 0 0 0 0 0 0 0 0 0 0 0 0 0 0 0 0 0 0 0 0 0 0 0 0 0 0 0
1 0 0 0 0 0 0 0 0 0 0 0 0 0 0 0 0 0 0 0 0 0 0 0 0 0 0 0 0 0 0 0 0 0 0 0 0 0
0 0 0 0 0 0 0 0 0 0 0 0 0 0 0 0 0 0 0 0 0 0 0 0 0 0 0 0 0 0 0 0 0 0 0 0 0 0
0 0 0 0 0 0 0 0 0 0 0 0 0 0 0 0 0 0 0 0 0 0 0 0 0 0 0 0 0 0 0 0 0 0 0 0 0 0
0 0 0 0 0 0 0 0 0 0 0 0 0 0 0 0 0 0 0 0 0 0 0 0 0 0 0 0 0 0 0 0 0 0 0 0 0 0
0 0 0 0 0 0 0 0 0 0 0 0 0 0 0 0 0 0 0 0 0 0 0 0 0 0 0 0 0 0 0 0 0 0 0 0 0 0
0 0 0 0 0 0 0 0 0 0 0 0 0 0 0 0 0 0 0 0 0 0 0 0 0 0 0 0 0 0 0 0 0 0 0 0 0 0
1 1 0 0 0 0 0 0 0 0 0 0 0 0 0 0 0 0 0 0 0 0 0 0 0 0 0 0 0 0 0 0 0 0 0 0 0 0
2 1 0 0 0 0 0 0 0 0 0 0 0 0 0 0 0 0 0 0 0 0 0 0 0 0 0 0 0 0 0 0 0 0 0 0 0 0
1 1 0 0 0 0 0 0 0 0 0 0 0 0 0 0 0 0 0 0 0 0 0 0 0 0 0 0 0 0 0 0 0 0 0 0 0 0
0 0 0 0 0 0 0 0 0 0 0 0 0 0 0 0 0 0 0 0 0 0 0 0 0 0 0 0 0 0 0 0 0 0 0 0 0 0
0 0 0 0 0 0 0 0 0 0 0 0 0 0 0 0 0 0 0 0 0 0 0 0 0 0 0 0 0 0 0 0 0 0 0 0 0 0
0 0 0 0 0 0 0 0 0 0 0 0 0 0 0 0 0 0 0 0 0 0 0 0 0 0 0 0 0 0 0 0 0 0 0 0 0 0
0 0 0 0 0 0 0 0 0 0 0 0 0 0 0 0 0 0 0 0 0 0 0 0 0 0 0 0 0 0 0 0 0 0 0 0 0 0
0 0 0 0 0 0 0 0 0 0 0 0 0 0 0 0 0 0 0 0 0 0 0 0 0 0 0 0 0 0 0 0 0 0 0 0 0 0
0 0 0 0 0 0 0 0 0 0 0 0 0 0 0 0 0 0 0 0 0 0 0 0 0 0 0 0 0 0 0 0 0 0 0 0 0 0
0 0 0 0 0 0 0 0 0 0 0 0 0 0 0 0 0 0 0 0 0 0 0 0 0 0 0 0 0 0 0 0 0 0 0 0 0 0
Wind_Speed
2 2 2 1 1 2 2 3 4 2 2 2 1 2 2 2 4 3 3 6 7 8 8 8 8 8 7 6 6 6 5 5 5 5 5 5 5 5
2 2 2 1 1 1 2 2 3 4 3 3 2 2 2 2 4 3 4 7 8 8 8 8 8 8 8 7 7 7 6 6 5 5 5 5 5 5
2 2 2 2 1 1 1 2 2 3 2 2 1 1 1 2 1 2 2 3 4 8 8 8 8 8 8 9 8 8 7 7 7 7 6 6 6 6
3 3 3 2 2 1 2 2 2 2 3 2 1 1 1 2 2 2 2 3 3 6 8 8 8 9 8 9 9 9 9 9 8 8 8 8 7 7
4 4 4 3 3 2 2 2 2 2 2 2 1 1 1 1 1 1 2 1 3 4 6 7 8 8 8 9 9 9 9 9 9 9 9 8 8 9
4 4 4 5 5 4 3 3 2 2 2 2 1 1 1 1 1 1 1 1 2 2 3 4 6 8 8 9 9 9 10 10 10 10 10 9 9 9
4 4 4 5 6 5 4 4 3 2 2 2 2 1 1 1 2 2 2 2 2 2 1 2 2 3 4 6 8 10 10 11 11 11 10 10 10 9
4 3 3 4 5 5 6 6 7 5 4 3 2 3 4 3 3 2 2 1 2 2 1 3 2 3 4 4 8 10 10 10 11 11 11 11 10 10
4 3 3 3 4 3 4 4 5 7 8 6 5 5 5 5 4 3 3 4 4 3 2 3 2 3 4 5 9 10 11 11 10 11 11 10 10 10
4 4 4 3 4 4 3 3 3 4 6 6 6 6 5 5 5 5 4 3 2 2 3 3 3 3 3 3 7 9 10 10 10 10 10 10 10 9
3 4 4 4 6 7 4 4 3 4 4 5 6 6 6 7 5 3 2 2 2 3 3 3 2 2 2 3 4 6 8 9 9 10 10 10 9 8
2 3 5 6 6 7 5 5 5 5 3 2 2 3 4 5 6 6 5 4 3 3 3 3 2 1 2 2 2 2 3 5 8 9 9 9 8 4
3 2 3 6 7 8 7 6 7 5 3 3 3 3 3 3 3 4 5 5 5 4 4 4 2 2 2 2 2 2 2 2 2 4 7 9 9 7
3 3 3 6 6 7 6 7 6 4 2 2 2 3 3 4 4 4 5 5 5 6 4 4 3 3 3 2 2 2 2 2 2 2 3 4 6 8
3 4 4 5 5 4 7 7 4 3 2 3 4 4 4 4 3 2 2 2 3 4 4 4 4 3 3 3 3 2 2 2 2 2 2 3 3 3
3 2 3 3 3 3 3 4 4 4 4 4 4 4 2 2 2 2 2 2 1 3 2 3 4 4 3 3 3 3 3 2 2 2 2 2 2 3
3 1 1 1 2 2 2 3 3 3 4 4 4 3 3 3 3 2 2 2 2 2 2 1 1 2 3 3 2 3 3 3 3 3 2 2 3 3
4 3 3 4 4 4 4 4 3 4 5 4 4 4 4 4 3 2 2 2 3 3 3 2 1 1 1 2 4 4 3 3 3 2 2 3 4 3
4 4 4 5 5 5 4 4 4 4 4 4 4 4 4 4 3 3 3 2 2 3 3 2 2 3 2 3 4 4 4 3 2 2 3 3 4 4
3 4 5 5 5 5 5 4 4 4 4 4 4 4 4 4 3 3 3 3 3 2 2 2 3 4 5 4 3 3 5 4 3 3 3 2 3 4
4 4 5 5 5 5 5 4 4 4 4 4 4 4 4 3 3 3 3 4 3 2 3 4 5 5 2 1 0 3 3 5 5 4 3 2 2 2
4 5 5 5 4 4 4 4 4 4 4 3 4 3 3 3 4 4 3 3 3 3 4 3 1 1 2 3 4 4 3 3 3 4 4 4 4 4
5 5 4 4 4 4 4 4 4 3 3 3 3 3 3 3 3 3 3 3 3 3 2 2 1 1 2 3 3 3 3 3 2 2 3 5 7 7
Wind_Direction
172 168 175 202 171 173 157 155 152 167 255 269 268 247 212 191 201 192 201 214 213 212 215 218 218 217 217 214 207 201 199 201 207 210 215 224 232 239
169 165 185 195 177 158 154 155 154 160 203 245 239 239 212 203 200 195 211 218 217 217 219 220 220 220 219 214 209 207 204 205 208 213 219 228 236 241
190 184 205 191 170 181 152 150 165 152 174 259 253 247 184 203 215 215 213 210 216 221 221 221 220 222 223 220 216 214 212 213 217 222 228 232 237 242
199 190 210 198 189 190 173 176 183 173 163 215 268 254 230 210 203 208 220 218 220 224 223 225 223 227 228 227 223 220 219 220 221 226 232 237 241 244
196 192 202 189 200 201 189 187 190 182 163 169 237 251 250 209 178 232 224 238 236 231 229 228 228 230 227 230 229 226 226 226 225 228 233 238 242 244
202 199 199 193 197 196 195 192 182 175 167 164 216 250 239 229 156 208 267 259 251 244 237 231 231 235 233 232 232 231 230 230 230 231 234 236 238 239
215 213 211 208 205 198 194 188 175 179 179 177 209 222 228 200 213 213 224 266 276 236 238 248 232 239 241 237 235 234 233 231 231 233 234 236 237 238
211 219 222 212 208 207 204 197 188 188 194 192 207 214 227 214 207 197 196 205 276 249 189 256 215 238 240 230 231 233 234 232 232 232 233 234 237 239
204 202 213 206 198 199 210 216 219 217 207 193 202 220 216 210 194 205 205 204 227 223 175 255 244 247 246 242 235 232 233 233 232 232 234 235 237 239
209 204 203 209 207 193 193 213 233 233 223 210 211 222 224 217 199 200 203 216 252 233 179 229 245 244 255 251 246 236 234 233 233 234 235 236 238 240
218 210 203 210 218 200 187 209 239 259 251 227 225 232 235 229 207 170 182 185 251 256 199 198 235 251 266 264 259 240 234 233 235 236 237 236 237 239
224 221 215 216 220 203 193 201 226 245 239 254 251 257 249 241 221 200 190 192 215 246 220 187 209 186 278 274 257 247 238 242 240 241 241 239 232 221
216 226 231 226 227 217 207 210 223 227 224 225 238 251 258 251 238 217 199 192 201 230 214 176 190 187 204 268 290 251 227 235 235 245 243 240 232 211
215 226 234 235 234 228 220 227 230 221 212 229 240 246 245 247 243 232 220 216 216 223 211 179 188 191 188 224 264 276 263 237 220 237 239 240 236 229
220 230 244 247 237 232 231 231 222 209 209 227 241 246 239 236 236 246 246 225 235 236 220 200 191 192 183 202 225 238 264 268 228 227 235 225 219 209
233 246 248 238 233 241 243 233 219 212 210 226 240 251 250 238 232 222 225 223 244 278 252 215 202 188 201 214 209 236 229 239 247 232 230 238 231 214
183 180 197 208 241 250 246 243 232 219 223 228 231 245 251 250 252 228 206 199 205 236 259 259 201 190 207 202 215 233 234 241 242 234 221 250 256 237
162 190 210 218 227 232 234 238 231 228 228 225 223 225 231 234 245 239 210 203 215 229 234 229 174 70 3 289 222 222 230 238 244 228 210 228 264 263
180 210 217 222 229 232 230 228 231 231 223 220 224 226 224 223 220 223 220 214 223 233 236 212 181 170 199 262 278 217 207 228 223 232 228 219 238 253
211 219 225 228 228 231 232 232 234 234 226 224 226 226 219 214 217 220 215 213 221 233 244 223 202 198 204 219 240 263 219 209 205 225 239 243 256 270
220 230 234 233 233 234 233 230 228 230 229 223 222 223 217 208 218 222 217 217 217 218 227 238 237 219 191 118 274 281 272 230 216 210 208 215 256 281
223 231 237 238 237 235 230 228 230 233 229 227 220 217 211 200 209 216 214 212 217 218 230 248 248 148 154 188 226 251 272 290 260 253 235 203 192 211
228 230 232 235 236 228 223 223 224 226 219 220 220 214 206 204 209 211 214 217 216 214 214 229 226 190 207 207 219 238 256 271 286 305 293 270 242 243